Location: Newark
(48.8604°N, 2.3376°E)
Time: 16:03:18
(UTC+00:00)

XW-2C - Pass Details

Date: 07 December 2021
Orbit: 503 x 523 km, 97.5° (Epoch: 17 January)

Event Time Altitude Azimuth Distance (km) Brightness Sun altitude
Rises 06:05:55 0° 11° (NNE) 2,672 ? -13.1°
Reaches altitude 10° 06:08:02 10° 11° (N) 1,778 ? -12.8°
Maximum altitude 06:11:52 79° 285° (WNW) 542 ? -12.2°
Drops below altitude 10° 06:15:40 10° 199° (SSW) 1,760 ? -11.6°
Sets 06:17:45 0° 198° (SSW) 2,642 ? -11.3°
